| time (UTC) | temp F | wind direction | speed knots | gust knots | rain 1hr in | rain 24hr in | rain mn in | humidity % | barometer mb |
| 20260508123043 | 53 | 97 | 2.6 | 4.3 | 0.00 | 0.00 | 0.00 | 56 | 1012.4 |
| 20260508121540 | 56 | 77 | 2.6 | 6.1 | 0.00 | 0.00 | 0.00 | 48 | 1012.3 |
| 20260508120022 | 59 | 274 | 7.0 | 9.6 | 0.00 | 0.00 | 0.00 | 47 | 1012.3 |
| 20260508114529 | 59 | 281 | 7.0 | 9.6 | 0.00 | 0.00 | 0.00 | 47 | 1012.2 |
| 20260508113126 | 59 | 301 | 6.1 | 9.6 | 0.00 | 0.00 | 0.00 | 46 | 1012.1 |
| 20260508111601 | 58 | 278 | 6.1 | 13.9 | 0.00 | 0.00 | 0.00 | 47 | 1012.0 |
| 20260508110041 | 57 | 278 | 5.2 | 12.2 | 0.00 | 0.00 | 0.00 | 48 | 1011.8 |
| 20260508104553 | 57 | 283 | 5.2 | 10.4 | 0.00 | 0.00 | 0.00 | 48 | 1011.8 |
| 20260508103026 | 58 | 266 | 7.8 | 11.3 | 0.00 | 0.00 | 0.00 | 45 | 1011.7 |
| 20260508101532 | 59 | 271 | 8.7 | 13.9 | 0.00 | 0.00 | 0.00 | 42 | 1011.6 |
| 20260508100011 | 59 | 267 | 7.8 | 12.2 | 0.00 | 0.00 | 0.00 | 42 | 1011.5 |
| 20260508094510 | 59 | 294 | 3.5 | 8.7 | 0.00 | 0.00 | 0.00 | 42 | 1011.6 |
| 20260508093014 | 58 | 279 | 5.2 | 11.3 | 0.00 | 0.00 | 0.00 | 41 | 1011.5 |
| 20260508091509 | 59 | 259 | 8.7 | 14.8 | 0.00 | 0.00 | 0.00 | 40 | 1011.6 |
| 20260508090008 | 58 | 271 | 7.0 | 10.4 | 0.00 | 0.00 | 0.00 | 42 | 1011.7 |
| 20260508084508 | 58 | 274 | 7.8 | 10.4 | 0.00 | 0.00 | 0.00 | 44 | 1011.7 |
| 20260508083009 | 59 | 272 | 7.8 | 12.2 | 0.00 | 0.00 | 0.00 | 43 | 1011.8 |
| 20260508081509 | 59 | 283 | 7.8 | 10.4 | 0.00 | 0.00 | 0.00 | 45 | 1011.7 |
| 20260508080007 | 59 | 278 | 6.1 | 7.8 | 0.00 | 0.00 | 0.00 | 44 | 1011.7 |
| 20260508074553 | 61 | 266 | 5.2 | 7.8 | 0.00 | 0.00 | 0.00 | 41 | 1011.7 |
| 20260508073149 | 62 | 281 | 6.1 | 7.8 | 0.00 | 0.00 | 0.00 | 39 | 1011.6 |
| 20260508071532 | 62 | 263 | 4.3 | 6.1 | 0.00 | 0.00 | 0.00 | 41 | 1011.7 |
| 20260508070031 | 63 | 286 | 1.7 | 5.2 | 0.00 | 0.00 | 0.00 | 39 | 1011.6 |
| 20260508064546 | 64 | 303 | 1.7 | 5.2 | 0.00 | 0.00 | 0.00 | 38 | 1011.5 |
| 20260508063026 | 65 | 285 | 0.0 | 0.0 | 0.00 | 0.00 | 0.00 | 38 | 1011.5 |
| 20260508061519 | 64 | 330 | 0.9 | 1.7 | 0.00 | 0.00 | 0.00 | 38 | 1011.5 |
| 20260508060019 | 69 | 346 | 7.0 | 7.0 | 0.00 | 0.00 | 0.00 | 32 | 1011.3 |
| 20260508054529 | 69 | 338 | 5.2 | 7.0 | 0.00 | 0.00 | 0.00 | 31 | 1011.3 |
| 20260508053018 | 65 | 336 | 0.0 | 0.0 | 0.00 | 0.00 | 0.00 | 38 | 1011.2 |
| 20260508051524 | 67 | 293 | 1.7 | 3.5 | 0.00 | 0.00 | 0.00 | 37 | 1011.0 |
| 20260508050030 | 68 | 295 | 0.9 | 2.6 | 0.00 | 0.00 | 0.00 | 37 | 1011.0 |
| 20260508044559 | 68 | 323 | 0.9 | 3.5 | 0.00 | 0.00 | 0.00 | 36 | 1010.9 |
| 20260508043101 | 70 | 281 | 2.6 | 4.3 | 0.00 | 0.00 | 0.00 | 37 | 1010.9 |
| 20260508041541 | 70 | 285 | 3.5 | 6.1 | 0.00 | 0.00 | 0.00 | 37 | 1010.9 |
| 20260508040050 | 71 | 289 | 3.5 | 5.2 | 0.00 | 0.00 | 0.00 | 36 | 1010.9 |
| 20260508034527 | 71 | 281 | 4.3 | 7.0 | 0.00 | 0.00 | 0.00 | 36 | 1010.8 |
| 20260508033023 | 72 | 285 | 2.6 | 4.3 | 0.00 | 0.00 | 0.00 | 36 | 1010.7 |
| 20260508031507 | 73 | 277 | 4.3 | 6.1 | 0.00 | 0.00 | 0.00 | 36 | 1010.8 |
| 20260508030005 | 73 | 281 | 6.1 | 7.0 | 0.00 | 0.00 | 0.00 | 36 | 1010.7 |
| 20260508024548 | 74 | 267 | 3.5 | 5.2 | 0.00 | 0.00 | 0.00 | 36 | 1010.6 |
| 20260508023047 | 74 | 260 | 4.3 | 7.0 | 0.00 | 0.00 | 0.00 | 34 | 1010.6 |
| 20260508021528 | 76 | 224 | 4.3 | 7.0 | 0.00 | 0.00 | 0.00 | 32 | 1010.6 |
| 20260508020026 | 78 | 212 | 6.1 | 8.7 | 0.00 | 0.00 | 0.00 | 28 | 1010.7 |
| 20260508014509 | 78 | 191 | 4.3 | 10.4 | 0.00 | 0.00 | 0.00 | 25 | 1010.7 |
| 20260508013010 | 79 | 198 | 6.1 | 8.7 | 0.00 | 0.00 | 0.00 | 25 | 1010.7 |
| 20260508011554 | 79 | 191 | 5.2 | 10.4 | 0.00 | 0.00 | 0.00 | 23 | 1010.7 |
| 20260508010049 | 79 | 179 | 4.3 | 7.8 | 0.00 | 0.00 | 0.00 | 20 | 1010.9 |
| 20260508004537 | 79 | 183 | 1.7 | 8.7 | 0.00 | 0.00 | 0.00 | 23 | 1011.0 |
| 20260508003026 | 79 | 198 | 7.8 | 10.4 | 0.00 | 0.00 | 0.00 | 23 | 1011.1 |
| 20260508001510 | 79 | 242 | 5.2 | 10.4 | 0.00 | 0.00 | 0.00 | 23 | 1011.2 |
| 20260508000008 | 79 | 212 | 6.1 | 11.3 | 0.00 | 0.00 | 0.00 | 23 | 1011.1 |
| 20260507234550 | 79 | 137 | 7.0 | 13.0 | 0.00 | 0.00 | 0.00 | 23 | 1011.2 |
| 20260507233048 | 79 | 202 | 7.8 | 11.3 | 0.00 | 0.00 | 0.00 | 25 | 1011.3 |
| 20260507231531 | 79 | 200 | 7.0 | 12.2 | 0.00 | 0.00 | 0.00 | 26 | 1011.5 |
| 20260507230026 | 78 | 202 | 3.5 | 9.6 | 0.00 | 0.00 | 0.00 | 25 | 1011.7 |
| 20260507224512 | 79 | 210 | 7.8 | 13.0 | 0.00 | 0.00 | 0.00 | 25 | 1011.9 |
| 20260507223011 | 78 | 204 | 8.7 | 13.9 | 0.00 | 0.00 | 0.00 | 25 | 1012.1 |
| 20260507221645 | 78 | 217 | 9.6 | 14.8 | 0.00 | 0.00 | 0.00 | 26 | 1012.3 |
| 20260507220042 | 78 | 203 | 8.7 | 14.8 | 0.00 | 0.00 | 0.00 | 27 | 1012.4 |
| 20260507214530 | 77 | 211 | 7.8 | 15.6 | 0.00 | 0.00 | 0.00 | 27 | 1012.6 |
| 20260507213024 | 77 | 221 | 7.8 | 14.8 | 0.00 | 0.00 | 0.00 | 28 | 1012.8 |
| 20260507211529 | 77 | 232 | 11.3 | 17.4 | 0.00 | 0.00 | 0.00 | 27 | 1013.0 |
| 20260507210019 | 76 | 259 | 11.3 | 14.8 | 0.00 | 0.00 | 0.00 | 28 | 1013.1 |
| 20260507204518 | 76 | 264 | 9.6 | 16.5 | 0.00 | 0.00 | 0.00 | 28 | 1013.3 |
| 20260507203016 | 76 | 214 | 11.3 | 17.4 | 0.00 | 0.00 | 0.00 | 30 | 1013.4 |
| 20260507201517 | 76 | 215 | 10.4 | 18.2 | 0.00 | 0.00 | 0.00 | 30 | 1013.5 |
| 20260507200012 | 75 | 262 | 11.3 | 20.0 | 0.00 | 0.00 | 0.00 | 31 | 1013.5 |
| 20260507194510 | 75 | 246 | 11.3 | 16.5 | 0.00 | 0.00 | 0.00 | 31 | 1013.6 |
| 20260507193011 | 74 | 200 | 10.4 | 20.9 | 0.00 | 0.00 | 0.00 | 32 | 1013.8 |
| 20260507191510 | 73 | 195 | 10.4 | 20.0 | 0.00 | 0.00 | 0.00 | 30 | 1013.9 |
| 20260507190006 | 73 | 269 | 10.4 | 20.0 | 0.00 | 0.00 | 0.00 | 28 | 1014.0 |
| 20260507184504 | 73 | 252 | 11.3 | 17.4 | 0.00 | 0.00 | 0.00 | 26 | 1014.1 |
| 20260507183002 | 72 | 264 | 13.0 | 20.9 | 0.00 | 0.00 | 0.00 | 27 | 1014.2 |
| 20260507181540 | 72 | 269 | 14.8 | 21.7 | 0.00 | 0.00 | 0.00 | 28 | 1014.1 |
| 20260507180040 | 72 | 204 | 14.8 | 20.0 | 0.00 | 0.00 | 0.00 | 30 | 1014.1 |
| 20260507174540 | 71 | 215 | 12.2 | 16.5 | 0.00 | 0.00 | 0.00 | 34 | 1014.3 |
| 20260507173023 | 70 | 195 | 13.9 | 19.1 | 0.00 | 0.00 | 0.00 | 35 | 1014.3 |
| 20260507171621 | 70 | 214 | 13.9 | 18.2 | 0.00 | 0.00 | 0.00 | 37 | 1014.3 |
| 20260507170058 | 69 | 181 | 6.1 | 12.2 | 0.00 | 0.00 | 0.00 | 45 | 1014.5 |
| 20260507164539 | 68 | 163 | 4.3 | 12.2 | 0.00 | 0.00 | 0.00 | 43 | 1014.6 |
| 20260507163036 | 68 | 143 | 3.5 | 7.0 | 0.00 | 0.00 | 0.00 | 40 | 1014.8 |
| 20260507161519 | 67 | 190 | 4.3 | 8.7 | 0.00 | 0.00 | 0.00 | 40 | 1014.8 |
| 20260507160015 | 66 | 185 | 9.6 | 11.3 | 0.00 | 0.00 | 0.00 | 44 | 1014.8 |
| 20260507154554 | 66 | 188 | 7.0 | 10.4 | 0.00 | 0.00 | 0.00 | 44 | 1014.8 |
| 20260507153051 | 65 | 210 | 7.0 | 10.4 | 0.00 | 0.00 | 0.00 | 47 | 1014.6 |
| 20260507151529 | 64 | 226 | 7.8 | 10.4 | 0.00 | 0.00 | 0.00 | 48 | 1014.6 |
| 20260507150025 | 62 | 210 | 7.0 | 11.3 | 0.00 | 0.00 | 0.00 | 52 | 1014.6 |
| 20260507144505 | 61 | 225 | 9.6 | 12.2 | 0.00 | 0.00 | 0.00 | 54 | 1014.4 |
| 20260507143119 | 59 | 231 | 7.8 | 9.6 | 0.00 | 0.00 | 0.00 | 57 | 1014.4 |
| 20260507141538 | 58 | 269 | 6.1 | 7.8 | 0.00 | 0.00 | 0.00 | 60 | 1014.4 |
| 20260507140044 | 57 | 267 | 7.8 | 8.7 | 0.00 | 0.00 | 0.00 | 61 | 1014.3 |
| 20260507134514 | 56 | 248 | 4.3 | 6.1 | 0.00 | 0.00 | 0.00 | 64 | 1014.2 |
| 20260507133011 | 54 | 284 | 3.5 | 6.1 | 0.00 | 0.00 | 0.00 | 68 | 1014.2 |
| 20260507131617 | 52 | 301 | 0.9 | 5.2 | 0.00 | 0.00 | 0.00 | 71 | 1014.1 |
| 20260507130052 | 53 | 298 | 1.7 | 2.6 | 0.00 | 0.00 | 0.00 | 70 | 1013.9 |
| 20260507124533 | 54 | 314 | 2.6 | 6.1 | 0.00 | 0.00 | 0.00 | 67 | 1013.8 |